Weather History for Stephenville, NL

Change the Weather History Date:

Wednesday, March 6, 2013

  Actual Average Record
Temperature  
Mean Temperature 34 °F -  
Max Temperature 37 °F 35 °F 42 °F (2008)
Min Temperature 31 °F 20 °F -2 °F (2014)
Degree Days  
Heating Degree Days 31    
Moisture  
Dew Point 20 °F    
Average Humidity 57    
Maximum Humidity 64    
Minimum Humidity 41    
Precipitation  
Precipitation 0.00 in 0.11 in - ()
Sea Level Pressure  
Sea Level Pressure 30.40 in    
Wind  
Wind Speed 11 mph ()    
Max Wind Speed 16 mph    
Max Gust Speed 20 mph    
Visibility 15.0 miles    
Events      
Averages and records for this station are not official NWS values.
T = Trace of Precipitation, MM = Missing Value Source: Averaged Metar Reports

Daily Weather History Graph

Daily Weather History Graph

Search for Another Location

Airport:

Trip Planner

Search our weather history database for the weather conditions in past years. The results will help you decide how hot, cold, wet, or windy it might be!

Date:

Astronomy

Mar. 06, 2013 Rise Set
Actual Time 6:55 AM NST 6:16 PM NST
Civil Twilight 6:24 AM NST 6:47 PM NST
Nautical Twilight 5:47 AM NST 7:23 PM NST
Astronomical Twilight 5:11 AM NST 8:00 PM NST
Moon 3:20 AM NST (3/6) 12:32 PM NST (3/6)
Length of Visible Light 12h 23m
Length of Day
11h 20m
Waning Crescent, 31% of the Moon is Illuminated
Mar 6
Waning Crescent
Mar 11
New
Mar 19
First Quarter
Mar 27
Full
Apr 3
Last Quarter

Hourly Weather History & Observations

Time (NST) Temp. Windchill Dew Point Humidity Pressure Visibility Wind Dir Wind Speed Gust Speed Precip Events Conditions
12:30 AM 33.8 °F 23.9 °F 19.4 °F 56% 30.29 in 15.0 mi ENE 15.0 mph - N/A   Overcast
1:30 AM 32.0 °F 21.2 °F 19.4 °F 60% 30.31 in 15.0 mi ENE 16.1 mph - N/A   Overcast
2:30 AM 33 °F - 20 °F 45% 30.32 in 15 mi ENE 9.2 mph - -   Overcast
2:30 AM 32.0 °F 24.2 °F 19.4 °F 60% 30.32 in 15.0 mi ENE 9.2 mph - N/A   Overcast
3:30 AM 32.0 °F 22.1 °F 19.4 °F 60% 30.33 in 15.0 mi NE 13.8 mph - N/A   Overcast
4:30 AM 32.0 °F 23.0 °F 19.4 °F 60% 30.34 in 15.0 mi ENE 11.5 mph - N/A   Overcast
5:30 AM 32.0 °F 24.2 °F 19.4 °F 60% 30.35 in 15.0 mi ENE 9.2 mph - N/A   Mostly Cloudy
6:30 AM 32.0 °F 22.5 °F 21.2 °F 64% 30.37 in 15.0 mi ENE 12.7 mph - N/A   Mostly Cloudy
7:30 AM 32.0 °F 22.1 °F 21.2 °F 64% 30.39 in 15.0 mi ENE 13.8 mph - N/A   Mostly Cloudy
8:30 AM 33 °F - 19 °F 44% 30.40 in 15 mi ENE 11.5 mph - -   Mostly Cloudy
8:30 AM 32.0 °F 23.0 °F 19.4 °F 60% 30.40 in 15.0 mi ENE 11.5 mph - N/A   Mostly Cloudy
9:30 AM 33.8 °F 24.8 °F 19.4 °F 56% 30.42 in 15.0 mi East 12.7 mph - N/A   Mostly Cloudy
10:30 AM 33.8 °F 24.8 °F 19.4 °F 56% 30.41 in 15.0 mi East 12.7 mph - N/A   Overcast
11:30 AM 33.8 °F 24.3 °F 21.2 °F 60% 30.42 in 15.0 mi East 13.8 mph 19.6 mph N/A   Mostly Cloudy
12:30 PM 33.8 °F 25.8 °F 21.2 °F 60% 30.42 in 15.0 mi ENE 10.4 mph - N/A   Mostly Cloudy
1:30 PM 35.6 °F 27.1 °F 19.4 °F 52% 30.41 in 15.0 mi NE 12.7 mph - N/A   Mostly Cloudy
2:30 PM 36 °F - 21 °F 41% 30.41 in 15 mi ENE 12.7 mph - -   Mostly Cloudy
2:30 PM 37.4 °F 29.3 °F 21.2 °F 52% 30.41 in 15.0 mi ENE 12.7 mph - N/A   Mostly Cloudy
3:30 PM 37.4 °F 28.5 °F 21.2 °F 52% 30.43 in 15.0 mi NE 15.0 mph - N/A   Mostly Cloudy
4:30 PM 35.6 °F 27.5 °F 19.4 °F 52% 30.43 in 15.0 mi ENE 11.5 mph - N/A   Mostly Cloudy
5:30 PM 33.8 °F 23.9 °F 19.4 °F 56% 30.44 in 15.0 mi NE 15.0 mph - N/A   Mostly Cloudy
6:30 PM 33.8 °F 25.3 °F 21.2 °F 60% 30.44 in 15.0 mi NE 11.5 mph - N/A   Mostly Cloudy
7:30 PM 33.8 °F 25.3 °F 21.2 °F 60% 30.45 in 15.0 mi ENE 11.5 mph - N/A   Mostly Cloudy
8:30 PM 33 °F - 22 °F 51% 30.45 in 15 mi ENE 5.8 mph - -   Mostly Cloudy
8:30 PM 33.8 °F 28.6 °F 21.2 °F 60% 30.45 in 15.0 mi ENE 5.8 mph - N/A   Mostly Cloudy
9:30 PM 33.8 °F 28.6 °F 21.2 °F 60% 30.47 in 15.0 mi East 5.8 mph - N/A   Mostly Cloudy
10:30 PM 32.0 °F 24.2 °F 21.2 °F 64% 30.48 in 15.0 mi East 9.2 mph - N/A   Overcast
11:30 PM 32.0 °F 26.4 °F 21.2 °F 64% 30.49 in 15.0 mi ENE 5.8 mph - N/A   Mostly Cloudy